QPF
0.00 0.00 0.00 0.00 0.00 0.00 0.00 0.00 0.00 0.00 0.00 0.00 0.00 0.00 0.00 0.00 0.00 0.00 0.00 0.00 0.00 0.00 0.00 0.00 0.00 0.00 0.00 0.00 0.00 0.00 0.00 0.00 0.00 0.00 0.00 0.00 0.00 0.00 0.00 0.00 0.01 0.01 0.02 0.04
0.00 0.00 0.00 0.00 0.00 0.00 0.00 0.00 0.00 0.00 0.00 0.00 0.00 0.00 0.00 0.00 0.00 0.00 0.00 0.00 0.00 0.00 0.00 0.00 0.00 0.00 0.00 0.00 0.00 0.00 0.00 0.00 0.00 0.00 0.00 0.00 0.00 0.00 0.00 0.00 0.00 0.00 0.01 0.01
0.00 0.00 0.00 0.00 0.00 0.00 0.00 0.00 0.00 0.00 0.00 0.00 0.00 0.00 0.00 0.00 0.00 0.00 0.00 0.00 0.00 0.00 0.00 0.00 0.00 0.00 0.00 0.00 0.00 0.00 0.00 0.00 0.00 0.00 0.00 0.00 0.00 0.00 0.00 0.00 0.00 0.00 0.00 0.00
0.00 0.00 0.00 0.00 0.00 0.00 0.00 0.00 0.00 0.00 0.00 0.00 0.00 0.00 0.00 0.00 0.00 0.00 0.00 0.00 0.00 0.00 0.00 0.00 0.00 0.00 0.00 0.00 0.00 0.00 0.00 0.00 0.00 0.00 0.00 0.00 0.00 0.00 0.00 0.00 0.00 0.00 0.00 0.00
0.00 0.00 0.00 0.00 0.00 0.00 0.00 0.00 0.00 0.00 0.00 0.00 0.00 0.00 0.00 0.00 0.00 0.00 0.00 0.00 0.00 0.00 0.00 0.00 0.00 0.00 0.00 0.00 0.00 0.00 0.00 0.00 0.00 0.00 0.00 0.00 0.01 0.01 0.00 0.01 0.01 0.01 0.01 0.01
0.00 0.00 0.00 0.00 0.00 0.00 0.00 0.00 0.00 0.00 0.00 0.00 0.00 0.00 0.00 0.00 0.00 0.00 0.00 0.00 0.00 0.00 0.00 0.00 0.00 0.00 0.00 0.00 0.00 0.00 0.00 0.00 0.00 0.00 0.00 0.00 0.01 0.01 0.01 0.02 0.02 0.02 0.01 0.01
0.00 0.00 0.00 0.00 0.00 0.00 0.00 0.00 0.00 0.00 0.00 0.00 0.00 0.00 0.00 0.00 0.00 0.00 0.00 0.00 0.00 0.00 0.00 0.00 0.00 0.00 0.00 0.00 0.00 0.00 0.00 0.00 0.00 0.00 0.00 0.00 0.01 0.01 0.01 0.02 0.03 0.02 0.02 0.03
0.00 0.00 0.00 0.00 0.00 0.00 0.00 0.00 0.00 0.00 0.00 0.00 0.00 0.00 0.00 0.00 0.00 0.00 0.00 0.00 0.00 0.00 0.00 0.00 0.00 0.00 0.00 0.00 0.00 0.00 0.00 0.00 0.00 0.00 0.00 0.00 0.01 0.02 0.03 0.03 0.04 0.04 0.03 0.04
0.00 0.00 0.00 0.00 0.00 0.00 0.00 0.00 0.00 0.00 0.00 0.00 0.00 0.00 0.00 0.00 0.00 0.00 0.00 0.00 0.00 0.00 0.00 0.00 0.00 0.00 0.00 0.00 0.00 0.00 0.00 0.00 0.00 0.00 0.00 0.00 0.01 0.03 0.05 0.05 0.06 0.05 0.05 0.04
0.00 0.00 0.00 0.00 0.00 0.00 0.00 0.00 0.00 0.00 0.00 0.00 0.00 0.00 0.00 0.00 0.00 0.00 0.00 0.00 0.00 0.00 0.00 0.00 0.00 0.00 0.00 0.00 0.00 0.00 0.00 0.00 0.00 0.00 0.00 0.00 0.01 0.03 0.04 0.04 0.04 0.04 0.05 0.06
0.00 0.00 0.00 0.00 0.00 0.00 0.00 0.00 0.00 0.00 0.00 0.00 0.00 0.00 0.00 0.00 0.00 0.00 0.00 0.00 0.00 0.00 0.00 0.00 0.00 0.00 0.00 0.00 0.00 0.00 0.00 0.00 0.00 0.00 0.00 0.00 0.01 0.02 0.01 0.02 0.02 0.03 0.04 0.06
0.00 0.00 0.00 0.00 0.00 0.00 0.00 0.00 0.00 0.00 0.00 0.00 0.00 0.00 0.00 0.00 0.00 0.00 0.00 0.00 0.00 0.00 0.00 0.00 0.00 0.00 0.00 0.00 0.00 0.00 0.00 0.00 0.00 0.00 0.00 0.00 0.00 0.01 0.01 0.01 0.02 0.02 0.02 0.04
0.00 0.00 0.00 0.00 0.00 0.00 0.00 0.00 0.00 0.00 0.00 0.00 0.00 0.00 0.00 0.00 0.00 0.00 0.00 0.00 0.00 0.00 0.00 0.00 0.00 0.00 0.00 0.00 0.00 0.00 0.00 0.00 0.00 0.00 0.00 0.00 0.00 0.00 0.00 0.01 0.01 0.01 0.01 0.03
0.00 0.00 0.00 0.00 0.00 0.00 0.00 0.00 0.00 0.00 0.00 0.00 0.00 0.00 0.00 0.00 0.00 0.00 0.00 0.00 0.00 0.00 0.00 0.00 0.00 0.00 0.00 0.00 0.00 0.00 0.00 0.00 0.00 0.00 0.00 0.00 0.00 0.00 0.00 0.01 0.01 0.00 0.00 0.01
0.00 0.00 0.00 0.00 0.00 0.00 0.00 0.00 0.00 0.00 0.00 0.00 0.00 0.00 0.00 0.00 0.00 0.00 0.00 0.00 0.00 0.00 0.00 0.00 0.00 0.00 0.00 0.00 0.00 0.00 0.00 0.00 0.00 0.00 0.00 0.00 0.00 0.00 0.00 0.00 0.00 0.00 0.00 0.00
0.00 0.00 0.00 0.00 0.00 0.00 0.00 0.00 0.00 0.00 0.00 0.00 0.00 0.00 0.00 0.00 0.00 0.00 0.00 0.00 0.00 0.00 0.00 0.00 0.00 0.00 0.00 0.00 0.00 0.00 0.00 0.00 0.00 0.00 0.00 0.00 0.00 0.00 0.00 0.00 0.00 0.00 0.00 0.00
0.00 0.00 0.00 0.00 0.00 0.00 0.00 0.00 0.00 0.00 0.00 0.00 0.00 0.00 0.00 0.00 0.00 0.00 0.00 0.00 0.00 0.00 0.00 0.00 0.00 0.00 0.00 0.00 0.00 0.00 0.00 0.00 0.00 0.00 0.00 0.00 0.00 0.00 0.00 0.00 0.00 0.00 0.00 0.00
0.00 0.00 0.00 0.00 0.00 0.00 0.00 0.00 0.00 0.00 0.00 0.00 0.00 0.00 0.00 0.00 0.00 0.00 0.00 0.00 0.00 0.00 0.00 0.00 0.00 0.00 0.00 0.00 0.00 0.00 0.00 0.00 0.00 0.00 0.00 0.00 0.00 0.00 0.00 0.00 0.00 0.00 0.00 0.00
0.00 0.00 0.00 0.00 0.00 0.00 0.00 0.00 0.00 0.00 0.00 0.00 0.00 0.00 0.00 0.00 0.00 0.00 0.00 0.00 0.00 0.00 0.00 0.00 0.00 0.00 0.00 0.00 0.00 0.00 0.00 0.00 0.00 0.00 0.00 0.00 0.00 0.00 0.00 0.00 0.00 0.00 0.00 0.00
0.00 0.00 0.00 0.00 0.00 0.00 0.00 0.00 0.00 0.00 0.00 0.00 0.00 0.00 0.00 0.00 0.00 0.00 0.00 0.00 0.00 0.00 0.00 0.00 0.00 0.00 0.00 0.00 0.00 0.00 0.00 0.00 0.00 0.00 0.00 0.00 0.00 0.00 0.00 0.00 0.00 0.00 0.00 0.00
0.00 0.00 0.00 0.00 0.00 0.00 0.00 0.00 0.00 0.00 0.00 0.00 0.00 0.00 0.00 0.00 0.00 0.00 0.00 0.00 0.00 0.00 0.00 0.00 0.00 0.00 0.00 0.00 0.00 0.00 0.00 0.00 0.00 0.00 0.00 0.00 0.00 0.00 0.00 0.00 0.00 0.00 0.00 0.00
0.00 0.00 0.00 0.00 0.00 0.00 0.00 0.00 0.00 0.00 0.00 0.00 0.00 0.00 0.00 0.00 0.00 0.00 0.00 0.00 0.00 0.00 0.00 0.00 0.00 0.00 0.00 0.00 0.00 0.00 0.00 0.00 0.00 0.00 0.00 0.00 0.00 0.00 0.00 0.00 0.00 0.00 0.00 0.00
0.00 0.00 0.00 0.00 0.00 0.00 0.00 0.00 0.00 0.00 0.00 0.00 0.00 0.00 0.00 0.00 0.00 0.00 0.00 0.00 0.00 0.00 0.00 0.00 0.00 0.00 0.00 0.00 0.00 0.00 0.00 0.00 0.00 0.00 0.00 0.00 0.00 0.00 0.00 0.00 0.00 0.00 0.00 0.00
0.00 0.00 0.00 0.00 0.00 0.00 0.00 0.00 0.00 0.00 0.00 0.00 0.00 0.00 0.00 0.00 0.00 0.00 0.00 0.00 0.00 0.00 0.00 0.00 0.00 0.00 0.00 0.00 0.00 0.00 0.00 0.00 0.00 0.00 0.00 0.00 0.00 0.00 0.00 0.00 0.00 0.00 0.00 0.00
0.00 0.00 0.00 0.00 0.00 0.00 0.00 0.00 0.00 0.00 0.00 0.00 0.00 0.00 0.00 0.00 0.00 0.00 0.00 0.00 0.00 0.00 0.00 0.00 0.00 0.00 0.00 0.00 0.00 0.00 0.00 0.00 0.00 0.00 0.00 0.00 0.00 0.00 0.00 0.00 0.00 0.00 0.00 0.00
0.00 0.00 0.00 0.00 0.00 0.00 0.00 0.00 0.00 0.00 0.00 0.00 0.00 0.00 0.00 0.00 0.00 0.00 0.00 0.00 0.00 0.00 0.00 0.00 0.00 0.00 0.00 0.00 0.00 0.00 0.00 0.00 0.00 0.00 0.00 0.00 0.00 0.00 0.00 0.00 0.00 0.00 0.00 0.00
MSLP
1014.26 1015.52 1016.62 1017.51 1018.21 1018.74 1019.17 1019.54 1019.90 1020.28 1020.67 1021.05 1021.40 1021.67 1021.85 1021.91 1021.86 1021.72 1021.49 1021.20 1020.88 1020.54 1020.20 1019.86 1019.53 1019.20 1018.88 1018.56 1018.22 1017.87 1017.49 1017.07 1016.62 1016.15 1015.66 1015.18 1014.72 1014.31 1013.96 1013.69 1013.48 1013.34 1013.26 1013.22
1015.48 1016.58 1017.49 1018.18 1018.70 1019.09 1019.43 1019.77 1020.14 1020.55 1020.97 1021.39 1021.74 1021.99 1022.13 1022.13 1022.01 1021.81 1021.53 1021.22 1020.90 1020.57 1020.25 1019.93 1019.60 1019.26 1018.91 1018.55 1018.17 1017.79 1017.39 1016.97 1016.54 1016.09 1015.63 1015.17 1014.71 1014.28 1013.89 1013.56 1013.29 1013.10 1012.97 1012.91
1016.57 1017.49 1018.20 1018.72 1019.09 1019.39 1019.69 1020.04 1020.45 1020.90 1021.37 1021.79 1022.12 1022.31 1022.36 1022.25 1022.04 1021.75 1021.43 1021.10 1020.78 1020.48 1020.20 1019.91 1019.60 1019.27 1018.91 1018.52 1018.11 1017.70 1017.30 1016.89 1016.49 1016.08 1015.66 1015.22 1014.78 1014.33 1013.91 1013.52 1013.19 1012.92 1012.74 1012.64
1017.45 1018.19 1018.72 1019.09 1019.37 1019.65 1019.96 1020.37 1020.85 1021.36 1021.86 1022.27 1022.54 1022.63 1022.55 1022.31 1021.96 1021.57 1021.18 1020.82 1020.52 1020.27 1020.04 1019.81 1019.54 1019.24 1018.88 1018.49 1018.07 1017.65 1017.24 1016.85 1016.48 1016.11 1015.74 1015.34 1014.92 1014.47 1014.02 1013.58 1013.18 1012.85 1012.60 1012.43
1018.09 1018.65 1019.03 1019.31 1019.56 1019.86 1020.25 1020.76 1021.34 1021.93 1022.45 1022.83 1023.01 1022.97 1022.72 1022.30 1021.80 1021.29 1020.82 1020.44 1020.16 1019.96 1019.80 1019.64 1019.45 1019.19 1018.86 1018.47 1018.05 1017.63 1017.23 1016.87 1016.53 1016.21 1015.88 1015.52 1015.12 1014.69 1014.22 1013.74 1013.29 1012.89 1012.57 1012.33
1018.52 1018.91 1019.18 1019.41 1019.68 1020.06 1020.58 1021.21 1021.92 1022.58 1023.13 1023.45 1023.52 1023.32 1022.88 1022.28 1021.60 1020.96 1020.41 1020.00 1019.74 1019.60 1019.52 1019.45 1019.33 1019.14 1018.85 1018.49 1018.08 1017.67 1017.28 1016.93 1016.62 1016.34 1016.05 1015.74 1015.38 1014.96 1014.49 1013.99 1013.50 1013.05 1012.66 1012.36
1018.80 1019.05 1019.23 1019.45 1019.79 1020.28 1020.94 1021.73 1022.54 1023.28 1023.82 1024.09 1024.03 1023.66 1023.03 1022.24 1021.40 1020.63 1020.00 1019.57 1019.33 1019.25 1019.25 1019.26 1019.23 1019.10 1018.86 1018.53 1018.14 1017.74 1017.36 1017.03 1016.75 1016.49 1016.25 1015.97 1015.65 1015.25 1014.80 1014.30 1013.79 1013.30 1012.87 1012.51
1019.00 1019.13 1019.27 1019.52 1019.93 1020.55 1021.35 1022.26 1023.18 1023.96 1024.48 1024.67 1024.49 1023.96 1023.15 1022.19 1021.21 1020.33 1019.64 1019.19 1018.97 1018.93 1019.01 1019.10 1019.13 1019.06 1018.87 1018.58 1018.21 1017.82 1017.45 1017.13 1016.87 1016.64 1016.43 1016.19 1015.90 1015.54 1015.11 1014.63 1014.12 1013.63 1013.17 1012.78
1019.16 1019.22 1019.35 1019.63 1020.13 1020.86 1021.77 1022.78 1023.75 1024.53 1025.02 1025.13 1024.83 1024.16 1023.21 1022.12 1021.03 1020.08 1019.35 1018.89 1018.68 1018.68 1018.80 1018.95 1019.03 1019.01 1018.86 1018.59 1018.24 1017.87 1017.52 1017.21 1016.97 1016.76 1016.58 1016.38 1016.12 1015.80 1015.40 1014.95 1014.46 1013.97 1013.52 1013.11
1019.30 1019.33 1019.48 1019.81 1020.38 1021.19 1022.16 1023.21 1024.18 1024.94 1025.36 1025.38 1024.98 1024.21 1023.17 1022.00 1020.86 1019.87 1019.13 1018.67 1018.47 1018.49 1018.63 1018.79 1018.90 1018.90 1018.77 1018.52 1018.20 1017.85 1017.51 1017.23 1017.01 1016.83 1016.68 1016.51 1016.29 1016.00 1015.64 1015.22 1014.76 1014.30 1013.85 1013.44
1019.40 1019.45 1019.63 1020.02 1020.64 1021.48 1022.46 1023.48 1024.40 1025.09 1025.42 1025.35 1024.88 1024.05 1022.98 1021.80 1020.66 1019.68 1018.95 1018.50 1018.31 1018.32 1018.45 1018.60 1018.70 1018.69 1018.57 1018.34 1018.04 1017.72 1017.42 1017.18 1016.99 1016.85 1016.72 1016.58 1016.40 1016.14 1015.81 1015.42 1014.99 1014.55 1014.12 1013.71
1019.43 1019.54 1019.78 1020.21 1020.85 1021.67 1022.61 1023.55 1024.36 1024.93 1025.16 1025.02 1024.49 1023.66 1022.61 1021.48 1020.40 1019.48 1018.79 1018.36 1018.17 1018.15 1018.24 1018.35 1018.41 1018.38 1018.25 1018.04 1017.77 1017.49 1017.25 1017.05 1016.91 1016.81 1016.72 1016.61 1016.45 1016.22 1015.91 1015.55 1015.14 1014.71 1014.29 1013.88
1019.40 1019.59 1019.89 1020.35 1020.98 1021.74 1022.57 1023.37 1024.03 1024.46 1024.58 1024.37 1023.82 1023.02 1022.04 1021.01 1020.04 1019.21 1018.60 1018.20 1018.00 1017.95 1017.99 1018.04 1018.04 1017.97 1017.83 1017.63 1017.40 1017.18 1017.00 1016.87 1016.79 1016.74 1016.69 1016.61 1016.47 1016.25 1015.96 1015.60 1015.20 1014.77 1014.35 1013.94
1019.34 1019.61 1019.97 1020.43 1021.00 1021.65 1022.33 1022.96 1023.44 1023.71 1023.71 1023.44 1022.90 1022.16 1021.29 1020.40 1019.57 1018.87 1018.34 1017.99 1017.79 1017.71 1017.68 1017.66 1017.60 1017.50 1017.35 1017.17 1016.98 1016.83 1016.73 1016.68 1016.66 1016.67 1016.66 1016.60 1016.47 1016.25 1015.96 1015.59 1015.18 1014.75 1014.32 1013.89
1019.31 1019.65 1020.02 1020.46 1020.94 1021.45 1021.95 1022.37 1022.65 1022.74 1022.63 1022.30 1021.79 1021.13 1020.40 1019.66 1019.00 1018.44 1018.01 1017.71 1017.53 1017.41 1017.33 1017.25 1017.14 1017.00 1016.85 1016.70 1016.57 1016.49 1016.47 1016.50 1016.55 1016.61 1016.63 1016.59 1016.46 1016.24 1015.93 1015.55 1015.13 1014.68 1014.23 1013.79
1019.40 1019.76 1020.12 1020.48 1020.84 1021.18 1021.47 1021.67 1021.74 1021.67 1021.44 1021.07 1020.58 1020.01 1019.41 1018.85 1018.34 1017.93 1017.61 1017.37 1017.21 1017.08 1016.96 1016.83 1016.69 1016.54 1016.39 1016.28 1016.22 1016.21 1016.26 1016.36 1016.47 1016.57 1016.62 1016.58 1016.45 1016.22 1015.90 1015.51 1015.06 1014.60 1014.14 1013.68
1019.63 1019.97 1020.28 1020.54 1020.75 1020.90 1020.98 1020.96 1020.84 1020.60 1020.27 1019.85 1019.38 1018.90 1018.43 1018.01 1017.65 1017.36 1017.15 1016.98 1016.84 1016.71 1016.58 1016.43 1016.28 1016.13 1016.02 1015.95 1015.94 1016.01 1016.12 1016.28 1016.43 1016.55 1016.61 1016.58 1016.44 1016.20 1015.87 1015.46 1015.02 1014.55 1014.08 1013.62
1020.02 1020.30 1020.51 1020.65 1020.70 1020.67 1020.54 1020.33 1020.02 1019.65 1019.22 1018.77 1018.32 1017.89 1017.52 1017.21 1016.97 1016.79 1016.66 1016.55 1016.45 1016.34 1016.21 1016.07 1015.93 1015.81 1015.73 1015.71 1015.76 1015.87 1016.04 1016.22 1016.40 1016.53 1016.59 1016.55 1016.41 1016.16 1015.83 1015.44 1015.01 1014.55 1014.09 1013.64
1020.48 1020.67 1020.77 1020.78 1020.68 1020.49 1020.20 1019.83 1019.39 1018.90 1018.40 1017.92 1017.47 1017.08 1016.77 1016.53 1016.37 1016.26 1016.19 1016.12 1016.05 1015.96 1015.86 1015.74 1015.63 1015.55 1015.51 1015.53 1015.62 1015.77 1015.96 1016.16 1016.34 1016.47 1016.52 1016.47 1016.33 1016.10 1015.79 1015.42 1015.02 1014.61 1014.18 1013.75
1020.88 1020.98 1020.98 1020.88 1020.67 1020.36 1019.96 1019.48 1018.95 1018.40 1017.85 1017.34 1016.89 1016.52 1016.23 1016.03 1015.90 1015.81 1015.76 1015.72 1015.66 1015.59 1015.51 1015.42 1015.35 1015.30 1015.30 1015.36 1015.48 1015.65 1015.84 1016.04 1016.21 1016.32 1016.36 1016.32 1016.19 1015.98 1015.71 1015.40 1015.05 1014.69 1014.32 1013.94
1021.10 1021.13 1021.05 1020.87 1020.60 1020.23 1019.79 1019.27 1018.72 1018.15 1017.59 1017.07 1016.62 1016.24 1015.94 1015.73 1015.58 1015.49 1015.42 1015.36 1015.30 1015.24 1015.17 1015.10 1015.05 1015.04 1015.07 1015.15 1015.28 1015.44 1015.63 1015.81 1015.96 1016.06 1016.10 1016.06 1015.97 1015.80 1015.59 1015.35 1015.08 1014.79 1014.48 1014.15
1021.02 1021.01 1020.90 1020.71 1020.43 1020.08 1019.66 1019.17 1018.65 1018.12 1017.58 1017.08 1016.62 1016.23 1015.90 1015.65 1015.45 1015.30 1015.18 1015.08 1014.99 1014.90 1014.82 1014.76 1014.72 1014.72 1014.76 1014.84 1014.96 1015.11 1015.27 1015.43 1015.56 1015.66 1015.70 1015.69 1015.64 1015.54 1015.40 1015.24 1015.06 1014.85 1014.61 1014.35
1020.63 1020.62 1020.53 1020.37 1020.15 1019.88 1019.54 1019.15 1018.72 1018.25 1017.78 1017.31 1016.86 1016.45 1016.08 1015.77 1015.49 1015.26 1015.06 1014.89 1014.74 1014.61 1014.50 1014.41 1014.36 1014.34 1014.36 1014.42 1014.52 1014.64 1014.77 1014.90 1015.02 1015.11 1015.17 1015.21 1015.21 1015.18 1015.13 1015.06 1014.97 1014.84 1014.68 1014.47
1019.99 1020.00 1019.97 1019.89 1019.78 1019.62 1019.42 1019.16 1018.86 1018.51 1018.12 1017.70 1017.28 1016.86 1016.45 1016.06 1015.71 1015.38 1015.09 1014.83 1014.60 1014.39 1014.22 1014.09 1013.99 1013.93 1013.90 1013.92 1013.97 1014.05 1014.14 1014.24 1014.34 1014.44 1014.53 1014.61 1014.67 1014.73 1014.77 1014.79 1014.78 1014.73 1014.64 1014.49
1019.22 1019.29 1019.33 1019.36 1019.37 1019.36 1019.31 1019.20 1019.04 1018.82 1018.53 1018.19 1017.80 1017.38 1016.94 1016.50 1016.06 1015.65 1015.26 1014.91 1014.58 1014.30 1014.05 1013.83 1013.66 1013.53 1013.43 1013.38 1013.36 1013.37 1013.41 1013.48 1013.57 1013.67 1013.78 1013.91 1014.04 1014.17 1014.29 1014.39 1014.46 1014.49 1014.46 1014.36
1018.50 1018.63 1018.76 1018.89 1019.02 1019.14 1019.23 1019.27 1019.25 1019.14 1018.96 1018.69 1018.35 1017.95 1017.50 1017.02 1016.54 1016.06 1015.59 1015.15 1014.74 1014.36 1014.02 1013.71 1013.44 1013.21 1013.02 1012.87 1012.76 1012.69 1012.67 1012.68 1012.74 1012.83 1012.96 1013.12 1013.30 1013.49 1013.69 1013.86 1014.00 1014.09 1014.12 1014.07
Thickness
5764 5748 5735 5740 5742 5739 5730 5718 5709 5708 5712 5702 5692 5687 5687 5687 5683 5678 5675 5672 5670 5669 5671 5670 5668 5667 5665 5663 5661 5660 5659 5659 5660 5660 5662 5665 5669 5674 5679 5684 5688 5692 5696 5700
5743 5735 5744 5744 5740 5732 5722 5710 5704 5703 5706 5696 5685 5682 5685 5684 5681 5678 5675 5671 5669 5667 5666 5665 5664 5662 5660 5657 5656 5655 5654 5654 5653 5653 5655 5657 5660 5665 5670 5675 5679 5684 5687 5691
5734 5736 5744 5737 5729 5721 5715 5707 5702 5696 5692 5688 5681 5675 5679 5682 5682 5680 5677 5673 5670 5666 5663 5662 5661 5659 5657 5654 5653 5651 5650 5649 5649 5649 5650 5653 5655 5658 5662 5666 5670 5675 5679 5683
5731 5738 5736 5727 5721 5717 5705 5713 5707 5696 5681 5671 5675 5656 5672 5675 5676 5676 5674 5671 5668 5666 5663 5661 5659 5657 5655 5653 5652 5650 5648 5647 5646 5646 5646 5646 5648 5650 5654 5657 5662 5667 5671 5675
5725 5731 5727 5720 5719 5718 5709 5710 5702 5693 5681 5667 5667 5657 5664 5673 5670 5672 5673 5671 5669 5667 5664 5662 5660 5657 5655 5653 5651 5649 5647 5646 5645 5644 5643 5643 5644 5646 5649 5653 5656 5659 5663 5667
5726 5733 5729 5723 5721 5718 5710 5698 5688 5675 5667 5657 5666 5656 5660 5665 5672 5675 5676 5674 5671 5669 5666 5663 5661 5659 5656 5654 5651 5648 5646 5644 5643 5643 5642 5641 5641 5643 5645 5647 5650 5653 5656 5660
5714 5719 5724 5726 5714 5709 5700 5681 5661 5660 5649 5653 5667 5660 5664 5680 5680 5680 5678 5675 5673 5670 5666 5663 5661 5658 5656 5653 5651 5648 5645 5643 5642 5641 5640 5640 5639 5640 5641 5642 5644 5646 5649 5652
5701 5697 5713 5719 5712 5701 5694 5682 5660 5654 5646 5650 5663 5660 5674 5688 5689 5686 5682 5678 5675 5672 5668 5665 5663 5660 5657 5654 5652 5649 5645 5643 5641 5640 5639 5638 5638 5638 5638 5639 5640 5641 5643 5646
5698 5697 5715 5720 5718 5709 5693 5679 5677 5658 5657 5649 5655 5666 5681 5690 5688 5685 5682 5679 5675 5673 5671 5668 5666 5663 5659 5656 5653 5649 5646 5643 5642 5640 5638 5637 5636 5635 5635 5636 5636 5637 5638 5641
5710 5698 5708 5716 5715 5708 5701 5682 5668 5659 5652 5645 5651 5659 5667 5684 5683 5683 5681 5679 5677 5676 5673 5671 5668 5665 5661 5658 5655 5651 5648 5644 5642 5640 5637 5636 5634 5633 5632 5632 5632 5633 5634 5635
5714 5697 5699 5705 5702 5699 5695 5683 5667 5654 5653 5643 5641 5657 5686 5689 5691 5687 5685 5683 5680 5678 5675 5672 5670 5667 5664 5660 5657 5653 5650 5646 5643 5640 5637 5634 5632 5631 5630 5629 5628 5629 5630 5631
5707 5692 5686 5698 5708 5710 5704 5693 5673 5663 5658 5648 5642 5659 5698 5696 5695 5692 5689 5687 5685 5682 5679 5676 5673 5669 5666 5662 5659 5655 5651 5647 5644 5640 5637 5634 5632 5629 5627 5626 5625 5625 5626 5627
5709 5694 5682 5686 5692 5703 5701 5693 5682 5667 5655 5645 5645 5667 5700 5699 5698 5695 5692 5690 5687 5685 5683 5679 5675 5671 5668 5665 5661 5657 5654 5649 5646 5642 5638 5634 5631 5628 5625 5623 5623 5622 5622 5622
5716 5699 5691 5688 5690 5697 5699 5695 5683 5675 5661 5656 5661 5675 5694 5700 5698 5698 5696 5694 5691 5688 5685 5682 5678 5674 5671 5668 5664 5660 5656 5652 5648 5643 5638 5634 5630 5627 5624 5622 5621 5619 5619 5618
5716 5704 5707 5706 5709 5705 5704 5701 5690 5683 5679 5673 5681 5683 5697 5704 5704 5704 5703 5699 5695 5692 5689 5686 5682 5678 5674 5671 5667 5663 5659 5654 5649 5644 5639 5635 5631 5627 5624 5621 5619 5617 5616 5615
5713 5709 5709 5708 5710 5709 5707 5708 5700 5693 5691 5687 5687 5691 5710 5711 5710 5708 5706 5702 5698 5695 5693 5691 5687 5683 5678 5674 5670 5666 5661 5656 5651 5645 5641 5636 5632 5628 5624 5621 5618 5616 5614 5612
5707 5706 5699 5696 5703 5708 5703 5713 5708 5705 5702 5699 5695 5705 5717 5716 5714 5713 5711 5706 5703 5700 5697 5694 5690 5686 5682 5678 5674 5669 5664 5659 5653 5647 5642 5638 5633 5629 5625 5621 5617 5615 5612 5610
5707 5697 5685 5688 5701 5697 5711 5728 5722 5715 5715 5710 5710 5714 5717 5717 5719 5718 5716 5711 5708 5706 5702 5699 5695 5690 5687 5683 5678 5672 5666 5660 5655 5649 5644 5639 5635 5630 5626 5622 5618 5615 5612 5610
5710 5700 5686 5680 5687 5695 5717 5728 5725 5720 5718 5725 5719 5721 5722 5722 5719 5719 5723 5719 5715 5712 5708 5703 5699 5695 5690 5686 5681 5674 5668 5662 5657 5651 5647 5642 5637 5632 5627 5623 5619 5616 5612 5610
5703 5699 5686 5680 5691 5693 5713 5731 5735 5725 5713 5729 5727 5725 5722 5717 5705 5711 5726 5724 5719 5716 5711 5707 5702 5697 5692 5688 5683 5676 5670 5664 5659 5655 5650 5645 5639 5634 5629 5625 5621 5617 5613 5610
5698 5690 5684 5680 5685 5693 5717 5727 5729 5706 5706 5728 5729 5728 5719 5713 5715 5722 5726 5725 5722 5718 5714 5710 5704 5698 5695 5690 5684 5677 5672 5667 5664 5659 5653 5648 5643 5637 5632 5627 5623 5619 5615 5611
5694 5687 5682 5676 5684 5696 5717 5721 5713 5711 5721 5725 5727 5727 5721 5720 5722 5722 5724 5723 5720 5717 5714 5710 5704 5700 5697 5691 5685 5679 5675 5673 5667 5661 5656 5651 5646 5641 5637 5630 5625 5621 5617 5613
5697 5700 5693 5693 5696 5704 5706 5708 5709 5712 5715 5719 5721 5723 5722 5721 5720 5720 5720 5719 5718 5715 5713 5709 5704 5700 5697 5693 5687 5682 5681 5676 5670 5664 5659 5654 5649 5644 5639 5633 5628 5623 5619 5615
5700 5699 5696 5695 5701 5702 5700 5701 5703 5707 5710 5713 5716 5718 5719 5716 5717 5716 5715 5715 5713 5712 5710 5707 5703 5699 5697 5694 5690 5687 5684 5679 5672 5666 5661 5656 5651 5647 5642 5636 5631 5626 5622 5618
5699 5694 5695 5695 5698 5697 5698 5694 5696 5701 5705 5707 5709 5710 5710 5710 5709 5709 5709 5709 5709 5709 5707 5704 5701 5698 5698 5696 5692 5690 5685 5679 5673 5669 5664 5659 5655 5650 5645 5641 5636 5632 5627 5622
5687 5690 5694 5693 5691 5687 5687 5688 5690 5693 5695 5696 5698 5699 5700 5701 5700 5702 5702 5703 5703 5702 5702 5700 5699 5697 5697 5695 5692 5691 5687 5681 5675 5670 5667 5662 5657 5653 5648 5644 5641 5638 5634 5631